CW7443 Weather Reports


Display with metric or nautical units.
time (UTC)temp
F
wind
direction
speed
MPH
gust
MPH
rain 1hr
in
rain 24hr
in
rain mn
in
humidity
%
barometer
mb
20260510063349 61 107 1.0 4.0 0.00 0.01 0.00 72 1009.9
20260510062831 61 111 0.0 5.0 0.00 0.01 0.00 74 1010.2
20260510062356 61 152 1.0 6.0 0.00 0.01 0.00 75 1010.2
20260510061822 61 107 1.0 6.0 0.00 0.01 0.00 75 1010.2
20260510061324 61 164 0.0 5.0 0.00 0.01 0.00 75 1010.2
20260510060832 61 136 1.0 4.0 0.00 0.01 0.00 76 1010.2
20260510060318 61 97 1.0 4.0 0.00 0.01 0.00 76 1010.2
20260510055823 61 130 1.0 4.0 0.00 0.02 0.00 77 1009.8
20260510055349 61 158 0.0 3.0 0.00 0.02 0.00 76 1009.8
20260510054853 61 158 0.0 3.0 0.00 0.02 0.00 76 1009.8
20260510054317 61 134 0.0 4.0 0.00 0.02 0.00 75 1009.8
20260510053823 62 184 0.0 4.0 0.00 0.02 0.00 75 1009.8
20260510053327 62 132 0.0 4.0 0.00 0.02 0.00 75 1009.8
20260510052833 62 158 0.0 5.0 0.00 0.02 0.00 75 1009.6
20260510052317 62 150 0.0 5.0 0.00 0.02 0.00 74 1009.6
20260510051843 62 144 0.0 6.0 0.00 0.02 0.00 74 1009.6
20260510051323 61 148 1.0 6.0 0.00 0.02 0.00 75 1009.7
20260510050830 61 164 0.0 4.0 0.00 0.02 0.00 75 1009.7
20260510050319 61 126 0.0 4.0 0.00 0.02 0.00 75 1009.7
20260510045824 61 98 0.0 6.0 0.00 0.02 0.00 75 1009.5
20260510045329 61 153 1.0 6.0 0.00 0.02 0.00 75 1009.5
20260510044833 61 146 1.0 5.0 0.00 0.02 0.00 74 1009.5
20260510044335 61 144 1.0 5.0 0.00 0.02 0.00 75 1009.5
20260510043820 61 139 0.0 3.0 0.00 0.02 0.00 75 1009.5
20260510043326 60 134 1.0 3.0 0.00 0.02 0.00 75 1009.5
20260510042831 60 317 0.0 3.0 0.00 0.02 0.00 75 1009.2
20260510042336 60 198 0.0 0.0 0.00 0.02 0.00 76 1009.2
20260510041821 60 198 0.0 0.0 0.00 0.02 0.00 75 1009.2
20260510041331 60 198 0.0 2.0 0.00 0.02 0.00 76 1009.2
20260510040835 60 198 0.0 2.0 0.00 0.02 0.00 75 1009.2
20260510040320 59 123 0.0 0.0 0.00 0.02 0.00 78 1009.2
20260510035824 59 123 0.0 0.0 0.00 0.02 0.02 77 1009.2
20260510035331 59 123 0.0 0.0 0.00 0.02 0.02 79 1009.2
20260510034839 59 123 0.0 0.0 0.00 0.02 0.02 81 1009.2
20260510034320 60 123 0.0 0.0 0.00 0.02 0.02 80 1009.0
20260510033844 60 123 0.0 0.0 0.00 0.02 0.02 79 1009.0
20260510033329 60 123 0.0 0.0 0.00 0.02 0.02 77 1009.0
20260510032831 60 123 0.0 0.0 0.00 0.02 0.02 77 1008.9
20260510032336 60 123 0.0 1.0 0.00 0.02 0.02 75 1008.9
20260510031840 60 123 0.0 1.0 0.00 0.02 0.02 75 1008.9
20260510031322 61 123 0.0 0.0 0.00 0.02 0.02 76 1008.8
20260510030829 61 123 0.0 0.0 0.00 0.02 0.02 77 1008.8
20260510030338 61 123 0.0 0.0 0.00 0.02 0.02 75 1008.8
20260510025821 61 123 0.0 0.0 0.00 0.02 0.02 77 1008.8
20260510025346 61 123 0.0 0.0 0.00 0.02 0.02 75 1008.8
20260510024831 61 123 0.0 0.0 0.00 0.02 0.02 76 1008.8
20260510024336 61 123 0.0 0.0 0.00 0.02 0.02 75 1008.7
20260510023820 61 146 0.0 3.0 0.00 0.02 0.02 75 1008.7
20260510023326 60 146 0.0 3.0 0.00 0.02 0.02 74 1008.7
20260510022832 60 100 0.0 0.0 0.00 0.02 0.02 76 1008.6
20260510022337 60 100 0.0 0.0 0.00 0.02 0.02 75 1008.6
20260510021823 60 100 0.0 0.0 0.00 0.02 0.02 75 1008.6
20260510021326 61 100 0.0 0.0 0.00 0.02 0.02 74 1008.4
20260510020815 61 100 0.0 0.0 0.00 0.02 0.02 72 1008.4
20260510020327 62 100 0.0 0.0 0.00 0.02 0.02 72 1008.4
20260510015828 62 100 0.0 0.0 0.00 0.02 0.02 72 1008.1
20260510015336 62 99 0.0 0.0 0.00 0.02 0.02 70 1008.1
20260510014819 63 113 0.0 0.0 0.00 0.02 0.02 69 1008.1
20260510014323 63 113 0.0 1.0 0.00 0.02 0.02 69 1008.1
20260510013828 63 113 0.0 1.0 0.00 0.02 0.02 68 1008.1
20260510013334 63 167 0.0 1.0 0.00 0.02 0.02 68 1008.1
20260510012838 64 167 0.0 0.0 0.00 0.02 0.02 67 1007.6
20260510012324 64 167 0.0 0.0 0.00 0.02 0.02 66 1007.6
20260510011830 64 148 0.0 0.0 0.00 0.02 0.02 65 1007.6
20260510011320 64 148 0.0 0.0 0.00 0.02 0.02 65 1007.7
20260510010825 64 148 0.0 1.0 0.00 0.02 0.02 65 1007.7
20260510010331 64 148 0.0 1.0 0.00 0.02 0.02 65 1007.7
20260510005833 65 148 0.0 1.0 0.00 0.02 0.02 66 1007.6
20260510005338 65 148 0.0 0.0 0.00 0.02 0.02 63 1007.6
20260510004824 66 148 0.0 2.0 0.00 0.02 0.02 62 1007.6
20260510004330 66 204 0.0 2.0 0.00 0.02 0.02 61 1007.5
20260510003838 66 360 0.0 2.0 0.00 0.02 0.02 61 1007.5
20260510003320 66 360 0.0 5.0 0.00 0.02 0.02 60 1007.5
20260510002821 67 169 0.0 5.0 0.00 0.02 0.02 59 1007.1
20260510002327 67 170 1.0 5.0 0.00 0.02 0.02 58 1007.1
20260510001836 67 149 0.0 1.0 0.00 0.02 0.02 58 1007.1
20260510001322 67 148 0.0 2.0 0.00 0.02 0.02 57 1007.0
20260510000828 68 149 0.0 3.0 0.00 0.02 0.02 56 1007.0
20260510000335 68 124 1.0 3.0 0.00 0.02 0.02 56 1007.0
20260509235838 68 198 1.0 4.0 0.00 0.02 0.02 56 1007.0
20260509235343 68 148 1.0 6.0 0.00 0.02 0.02 56 1007.0
20260509234828 68 157 2.0 6.0 0.00 0.02 0.02 57 1007.0
20260509234330 68 133 1.0 4.0 0.00 0.02 0.02 58 1006.9
20260509233839 68 115 1.0 5.0 0.00 0.02 0.02 58 1006.9
20260509233323 68 101 1.0 7.0 0.00 0.02 0.02 57 1006.9
20260509232826 68 161 1.0 7.0 0.00 0.02 0.02 57 1006.6
20260509232335 69 254 0.0 6.0 0.00 0.02 0.02 57 1006.6
20260509231823 69 240 2.0 8.0 0.00 0.02 0.02 56 1006.6
20260509231326 69 161 1.0 8.0 0.00 0.02 0.02 56 1006.6
20260509230831 69 142 3.0 9.0 0.00 0.02 0.02 56 1006.6
20260509230317 69 290 2.0 9.0 0.00 0.02 0.02 55 1006.6
20260509225843 69 147 2.0 11.0 0.00 0.02 0.02 55 1006.5
20260509225330 69 153 1.0 11.0 0.00 0.02 0.02 54 1006.5
20260509224819 69 240 2.0 6.0 0.00 0.02 0.02 54 1006.5
20260509224343 69 54 1.0 5.0 0.00 0.02 0.02 57 1006.5
20260509223830 69 169 1.0 9.0 0.00 0.02 0.02 55 1006.5
20260509223319 69 197 1.0 9.0 0.00 0.02 0.02 55 1006.5
20260509222822 70 280 3.0 9.0 0.00 0.02 0.02 55 1006.6
20260509222334 70 185 2.0 9.0 0.00 0.02 0.02 55 1006.6
20260509221842 70 261 3.0 7.0 0.00 0.02 0.02 55 1006.6
20260509221327 70 167 1.0 7.0 0.00 0.02 0.02 55 1006.7
20260509220832 70 177 2.0 11.0 0.00 0.02 0.02 56 1006.7
20260509220321 70 188 3.0 11.0 0.00 0.02 0.02 54 1006.7
20260509215824 70 55 2.0 9.0 0.00 0.02 0.02 55 1006.8
20260509215329 70 237 1.0 7.0 0.00 0.02 0.02 58 1006.8
20260509214813 71 205 3.0 11.0 0.00 0.02 0.02 55 1006.8
20260509214339 71 192 2.0 11.0 0.00 0.02 0.02 54 1006.9
20260509213824 71 134 1.0 6.0 0.00 0.02 0.02 55 1006.9
20260509213317 71 254 0.0 9.0 0.00 0.02 0.02 57 1006.9
20260509212824 70 157 3.0 9.0 0.00 0.02 0.02 58 1006.9
20260509212329 71 127 3.0 11.0 0.00 0.02 0.02 54 1006.9
20260509211838 71 202 1.0 11.0 0.00 0.02 0.02 55 1006.9
20260509211319 70 290 3.0 12.0 0.00 0.02 0.02 54 1007.0
20260509210827 70 155 2.0 12.0 0.00 0.02 0.02 56 1007.0
20260509210316 70 238 1.0 10.0 0.00 0.02 0.02 58 1007.0
20260509205822 70 156 3.0 10.0 0.00 0.02 0.02 58 1007.1
20260509205328 70 135 1.0 7.0 0.00 0.02 0.02 56 1007.1
20260509204833 70 159 2.0 8.0 0.00 0.02 0.02 56 1007.1
20260509204315 70 78 3.0 8.0 0.00 0.02 0.02 60 1007.1
20260509203831 70 140 3.0 10.0 0.00 0.02 0.02 56 1007.1
20260509203335 70 146 2.0 10.0 0.00 0.02 0.02 58 1007.1
20260509202856 69 146 4.0 10.0 0.00 0.02 0.02 56 1007.1
20260509202320 69 101 3.0 10.0 0.00 0.02 0.02 54 1007.1
20260509201826 69 143 2.0 11.0 0.00 0.02 0.02 57 1007.1
20260509201328 69 84 3.0 12.0 0.00 0.02 0.02 58 1007.5
20260509200855 69 227 3.0 12.0 0.00 0.02 0.02 58 1007.5
20260509200340 70 190 3.0 10.0 0.00 0.02 0.02 56 1007.5
20260509195841 69 215 1.0 9.0 0.00 0.02 0.02 59 1007.6
20260509195326 69 130 1.0 9.0 0.00 0.02 0.02 59 1007.6
20260509194832 69 271 1.0 7.0 0.00 0.02 0.02 61 1007.6
20260509194335 69 130 2.0 7.0 0.00 0.02 0.02 60 1007.7
20260509193818 69 151 0.0 7.0 0.00 0.02 0.02 61 1007.7
20260509193326 69 184 1.0 7.0 0.00 0.02 0.02 61 1007.7
20260509192835 69 256 3.0 7.0 0.00 0.02 0.02 62 1008.0
20260509192319 68 163 2.0 8.0 0.00 0.02 0.02 65 1008.0
20260509191829 67 137 1.0 8.0 0.00 0.02 0.02 66 1008.0
20260509191352 67 238 2.0 9.0 0.00 0.02 0.02 67 1008.1
20260509190836 67 191 1.0 9.0 0.00 0.02 0.02 66 1008.1
20260509190319 67 207 2.0 9.0 0.00 0.02 0.02 67 1008.1
20260509185818 67 149 2.0 7.0 0.00 0.02 0.02 68 1008.1
20260509185326 66 236 2.0 11.0 0.00 0.02 0.02 65 1008.1
20260509184832 67 83 1.0 11.0 0.00 0.02 0.02 67 1008.1
20260509184336 66 147 1.0 6.0 0.00 0.02 0.02 67 1008.1
20260509183819 66 229 3.0 7.0 0.00 0.02 0.02 67 1008.1
20260509183329 66 188 2.0 11.0 0.00 0.02 0.02 67 1008.1
20260509182813 66 155 2.0 11.0 0.00 0.02 0.02 69 1008.2
20260509182345 66 171 2.0 7.0 0.00 0.02 0.02 69 1008.2
20260509181812 66 211 3.0 7.0 0.00 0.02 0.02 69 1008.2
20260509181339 65 167 2.0 7.0 0.00 0.02 0.02 71 1008.4
20260509180825 65 161 2.0 10.0 0.00 0.02 0.02 72 1008.4
20260509180350 65 167 3.0 10.0 0.00 0.02 0.02 68 1008.4
20260509175834 65 253 2.0 7.0 0.00 0.02 0.02 71 1008.5
20260509175321 65 83 0.0 6.0 0.00 0.02 0.02 73 1008.5
20260509174830 64 196 2.0 6.0 0.00 0.02 0.02 77 1008.5
20260509174332 63 136 2.0 8.0 0.00 0.02 0.02 72 1008.6
20260509173838 64 173 2.0 8.0 0.00 0.02 0.02 73 1008.6
20260509173327 63 136 2.0 9.0 0.00 0.02 0.02 73 1008.6
20260509172827 63 208 2.0 9.0 0.00 0.02 0.02 72 1008.6
20260509172338 63 63 0.0 7.0 0.00 0.02 0.02 75 1008.6
20260509171824 63 156 1.0 10.0 0.00 0.02 0.02 72 1008.6
20260509171329 64 88 2.0 10.0 0.00 0.02 0.02 73 1008.6
20260509170833 63 204 1.0 10.0 0.00 0.02 0.02 75 1008.6
20260509170340 62 107 1.0 8.0 0.00 0.02 0.02 77 1008.6
20260509165820 62 169 1.0 8.0 0.00 0.02 0.02 78 1008.7
20260509165325 61 182 1.0 8.0 0.00 0.02 0.02 78 1008.7
20260509164832 61 267 1.0 5.0 0.00 0.02 0.02 79 1008.7
20260509164337 61 111 2.0 7.0 0.00 0.02 0.02 78 1008.7
20260509163826 61 148 2.0 7.0 0.00 0.02 0.02 79 1008.7
20260509163332 61 173 0.0 6.0 0.00 0.02 0.02 77 1008.7
20260509162835 61 261 2.0 5.0 0.00 0.02 0.02 75 1008.6
20260509162320 61 156 1.0 12.0 0.00 0.02 0.02 82 1008.6
20260509161825 60 118 2.0 12.0 0.00 0.02 0.02 80 1008.6
20260509161328 60 294 1.0 5.0 0.00 0.02 0.02 83 1008.6
20260509160834 60 173 2.0 5.0 0.00 0.02 0.02 82 1008.6
20260509160322 60 143 1.0 4.0 0.00 0.02 0.02 85 1008.6
20260509155850 59 225 0.0 4.0 0.00 0.02 0.02 87 1008.5
20260509155335 59 228 1.0 5.0 0.00 0.02 0.02 87 1008.5
20260509154821 59 82 1.0 7.0 0.00 0.02 0.02 86 1008.5
20260509154328 59 105 2.0 7.0 0.00 0.02 0.02 87 1008.3
20260509153854 58 168 0.0 7.0 0.00 0.02 0.02 89 1008.3
20260509153318 58 138 2.0 7.0 0.00 0.02 0.02 88 1008.3
20260509152822 58 107 1.0 5.0 0.00 0.02 0.02 90 1008.2
20260509152327 57 140 2.0 5.0 0.00 0.02 0.02 89 1008.2
20260509151853 57 22 0.0 7.0 0.00 0.02 0.02 91 1008.2
20260509151335 57 266 2.0 7.0 0.00 0.02 0.02 91 1008.1
20260509150821 57 171 2.0 7.0 0.00 0.02 0.02 92 1008.1
20260509150331 57 180 1.0 6.0 0.00 0.02 0.02 93 1008.1
20260509145834 57 158 1.0 4.0 0.00 0.02 0.02 94 1008.1
20260509145321 57 234 0.0 6.0 0.00 0.02 0.02 96 1008.1
20260509144830 56 82 1.0 6.0 0.00 0.02 0.02 96 1008.1
20260509144321 56 126 1.0 8.0 0.00 0.02 0.02 97 1008.1
20260509143826 56 178 2.0 8.0 0.00 0.02 0.02 98 1008.1
20260509143331 56 186 1.0 7.0 0.00 0.02 0.02 99 1008.1
20260509142833 55 250 0.0 6.0 0.00 0.02 0.02 100 1008.1
20260509142322 55 178 1.0 6.0 0.00 0.02 0.02 100 1008.1
20260509141828 55 200 2.0 6.0 0.00 0.02 0.02 100 1008.1
20260509141350 55 182 1.0 6.0 0.00 0.02 0.02 100 1008.1
20260509140855 55 189 1.0 6.0 0.00 0.02 0.02 100 1008.1
20260509140319 55 165 1.0 4.0 0.00 0.02 0.02 100 1008.1
20260509135820 54 193 0.0 4.0 0.00 0.02 0.02 100 1008.2
20260509135326 54 172 0.0 5.0 0.00 0.02 0.02 100 1008.2
20260509134851 54 213 1.0 5.0 0.00 0.02 0.02 100 1008.2
20260509134331 54 211 0.0 4.0 0.00 0.02 0.02 100 1008.2
20260509133823 54 160 1.0 4.0 0.00 0.02 0.02 100 1008.2
20260509133347 54 161 0.0 2.0 0.00 0.02 0.02 100 1008.2
20260509132852 54 161 0.0 2.0 0.00 0.02 0.02 100 1008.2
20260509132319 53 248 0.0 1.0 0.00 0.02 0.02 100 1008.2
20260509131826 53 254 0.0 0.0 0.00 0.02 0.02 100 1008.2
20260509131333 53 254 0.0 0.0 0.00 0.02 0.02 100 1007.9
20260509130815 53 254 0.0 0.0 0.00 0.02 0.02 100 1007.9
20260509130343 53 253 0.0 4.0 0.00 0.02 0.02 100 1007.9
20260509125849 53 254 0.0 4.0 0.00 0.02 0.02 100 1007.7
20260509125335 53 182 0.0 1.0 0.00 0.02 0.02 100 1007.7
20260509124821 53 182 0.0 2.0 0.00 0.02 0.02 100 1007.7
20260509124323 53 182 0.0 6.0 0.00 0.02 0.02 100 1008.0
20260509123828 53 241 0.0 6.0 0.00 0.02 0.02 100 1008.0
20260509123317 53 150 0.0 6.0 0.00 0.02 0.02 100 1008.0
20260509122821 53 132 0.0 4.0 0.00 0.02 0.02 100 1008.0
20260509122327 53 190 0.0 4.0 0.00 0.02 0.02 100 1008.0
20260509121832 53 182 0.0 6.0 0.00 0.02 0.02 100 1008.0
20260509121319 53 248 0.0 6.0 0.00 0.02 0.02 100 1008.2
20260509120824 53 240 1.0 6.0 0.00 0.02 0.02 100 1008.2
20260509120333 53 111 0.0 0.0 0.00 0.02 0.02 100 1008.2
20260509115836 53 111 0.0 1.0 0.00 0.02 0.02 100 1008.1
20260509115320 53 107 0.0 4.0 0.00 0.02 0.02 100 1008.1
20260509114826 53 138 0.0 4.0 0.00 0.02 0.02 100 1008.1
20260509114329 53 146 1.0 3.0 0.00 0.02 0.02 100 1008.4
20260509113837 53 89 0.0 3.0 0.00 0.02 0.02 100 1008.4
20260509113344 53 89 0.0 5.0 0.00 0.02 0.02 100 1008.4
20260509112825 53 154 0.0 6.0 0.00 0.02 0.02 100 1008.3
20260509112336 53 188 1.0 6.0 0.00 0.02 0.02 100 1008.3
20260509111821 53 208 0.0 4.0 0.00 0.02 0.02 100 1008.3
20260509111327 53 164 0.0 4.0 0.00 0.02 0.02 100 1008.5
20260509110831 53 163 1.0 4.0 0.00 0.02 0.02 100 1008.5
20260509110339 53 142 0.0 6.0 0.00 0.02 0.02 100 1008.5
20260509105826 53 23 1.0 6.0 0.00 0.02 0.02 100 1008.4
20260509105334 53 175 1.0 5.0 0.00 0.02 0.02 100 1008.4
20260509104818 52 105 0.0 5.0 0.00 0.02 0.02 100 1008.4
20260509104324 52 104 0.0 6.0 0.00 0.02 0.02 100 1008.1
20260509103828 52 163 2.0 6.0 0.00 0.02 0.02 100 1008.1
20260509103353 52 184 1.0 5.0 0.00 0.02 0.02 100 1008.1
20260509102834 52 220 0.0 4.0 0.00 0.02 0.02 100 1008.1
20260509102318 52 141 0.0 4.0 0.00 0.02 0.02 100 1008.1
20260509101823 52 159 1.0 4.0 0.00 0.02 0.02 100 1008.1
20260509101328 52 243 1.0 4.0 0.00 0.02 0.02 100 1008.1
20260509100834 52 142 0.0 1.0 0.00 0.02 0.02 100 1008.1
20260509100318 52 228 0.0 0.0 0.00 0.02 0.02 100 1008.1
20260509095820 52 247 0.0 0.0 0.00 0.02 0.02 100 1008.1
20260509095325 52 247 0.0 0.0 0.00 0.02 0.02 100 1008.1
20260509094831 52 247 0.0 0.0 0.00 0.02 0.02 100 1008.1
20260509094321 52 247 0.0 1.0 0.00 0.02 0.02 100 1008.2
20260509093826 52 247 0.0 1.0 0.00 0.02 0.02 100 1008.2
20260509093332 52 248 0.0 1.0 0.00 0.02 0.02 100 1008.2
20260509092854 52 186 0.0 0.0 0.00 0.02 0.02 100 1008.4
20260509092318 52 186 0.0 2.0 0.00 0.02 0.02 100 1008.4
20260509091824 52 186 0.0 2.0 0.00 0.02 0.02 100 1008.4
20260509091351 52 186 0.0 1.0 0.00 0.02 0.02 100 1008.5
20260509090835 52 188 0.0 0.0 0.00 0.02 0.02 100 1008.5
20260509090320 52 188 0.0 0.0 0.00 0.02 0.02 100 1008.5
20260509085842 52 188 0.0 0.0 0.00 0.02 0.02 100 1008.6
20260509085325 52 188 0.0 0.0 0.00 0.02 0.02 100 1008.6
20260509084831 52 188 0.0 1.0 0.00 0.02 0.02 100 1008.6
20260509084318 52 188 0.0 1.0 0.00 0.02 0.02 100 1008.8
20260509083827 52 188 0.0 1.0 0.00 0.02 0.02 100 1008.8
20260509083312 52 178 0.0 2.0 0.00 0.02 0.02 100 1008.8
20260509082821 52 177 0.0 2.0 0.00 0.02 0.02 100 1008.8
20260509082327 52 175 0.0 1.0 0.00 0.02 0.02 100 1008.8
20260509081830 52 175 0.0 2.0 0.00 0.02 0.02 100 1008.8
20260509081337 52 178 0.0 2.0 0.00 0.02 0.02 100 1008.9
20260509080842 52 178 0.0 0.0 0.00 0.02 0.02 100 1008.9
20260509080353 52 178 0.0 0.0 0.00 0.02 0.02 100 1008.9
20260509075834 52 178 0.0 0.0 0.00 0.02 0.02 100 1009.0
20260509075317 52 178 0.0 0.0 0.00 0.02 0.02 100 1009.0
20260509074824 52 178 0.0 0.0 0.00 0.02 0.02 100 1009.0
20260509074333 52 178 0.0 0.0 0.00 0.02 0.02 100 1009.1
20260509073816 52 178 0.0 0.0 0.00 0.02 0.02 100 1009.1
20260509073324 52 178 0.0 0.0 0.00 0.02 0.02 100 1009.1
20260509072830 52 178 0.0 0.0 0.00 0.02 0.02 100 1009.0
20260509072356 52 178 0.0 0.0 0.00 0.02 0.02 100 1009.0
20260509071821 52 178 0.0 0.0 0.00 0.02 0.02 100 1009.0
20260509071344 52 178 0.0 0.0 0.01 0.02 0.02 100 1009.2
20260509070828 52 178 0.0 0.0 0.01 0.02 0.02 100 1009.2
20260509070333 52 178 0.0 0.0 0.01 0.02 0.02 100 1009.2
20260509065835 52 178 0.0 0.0 0.01 0.02 0.02 100 1009.2
20260509065322 52 178 0.0 0.0 0.01 0.02 0.02 100 1009.2
20260509064812 52 178 0.0 0.0 0.01 0.02 0.02 100 1009.2
20260509064321 52 178 0.0 0.0 0.01 0.02 0.02 100 1009.2
20260509063825 52 178 0.0 0.0 0.01 0.02 0.02 100 1009.2